KI0MQ Weather Reports


time (UTC)temp
C
wind
direction
speed
KPH
gust
KPH
rain 1hr
cm
rain 24hr
cm
rain mn
cm
humidity
%
barometer
mb
20260504050503 12 0 0.0 0.0 0.00 0.00 0.00 73 1006.1
20260504050010 12 0 0.0 0.0 0.00 0.00 0.00 72 1006.1
20260504045504 12 0 0.0 0.0 0.00 0.00 0.00 71 1006.0
20260504045003 12 0 0.0 0.0 0.00 0.00 0.00 71 1006.2
20260504044508 12 0 0.0 0.0 0.00 0.00 0.00 71 1006.1
20260504044003 12 0 0.0 0.0 0.00 0.00 0.00 70 1006.1
20260504043504 13 0 0.0 0.0 0.00 0.00 0.00 69 1006.3
20260504043007 13 0 0.0 0.0 0.00 0.00 0.00 69 1006.3
20260504042503 13 0 0.0 0.0 0.00 0.00 0.00 68 1006.2
20260504041003 13 0 0.0 0.0 0.00 0.00 0.00 67 1006.4
20260504040504 13 0 0.0 0.0 0.00 0.00 0.00 67 1006.4
20260504040009 13 0 0.0 0.0 0.00 0.00 0.00 64 1006.5
20260504035503 14 0 0.0 0.0 0.00 0.00 0.00 66 1006.7
20260504035003 14 0 0.0 0.0 0.00 0.00 0.00 63 1006.7
20260504034508 14 0 0.0 0.0 0.00 0.00 0.00 64 1006.7
20260504033008 15 0 0.0 0.0 0.00 0.00 0.00 63 1006.9
20260504032004 15 0 0.0 0.0 0.00 0.00 0.00 61 1006.9
20260504030504 16 0 0.0 0.0 0.00 0.00 0.00 59 1007.0
20260504025504 16 0 0.0 0.0 0.00 0.00 0.00 58 1007.0
20260504025003 16 0 0.0 0.0 0.00 0.00 0.00 59 1007.1
20260504024507 16 0 0.0 0.0 0.00 0.00 0.00 58 1007.0
20260504024004 16 0 0.0 0.0 0.00 0.00 0.00 58 1007.1
20260504023503 16 0 0.0 0.0 0.00 0.00 0.00 56 1007.1
20260504023008 16 0 0.0 0.0 0.00 0.00 0.00 56 1007.1
20260504022503 16 0 0.0 0.0 0.00 0.00 0.00 57 1007.1
20260504021508 17 0 0.0 0.0 0.00 0.00 0.00 55 1007.1
20260504021005 17 0 0.0 0.0 0.00 0.00 0.00 55 1007.2
20260504020503 17 0 0.0 0.0 0.00 0.00 0.00 55 1007.2
20260504020008 17 0 0.0 0.0 0.00 0.00 0.00 54 1007.3
20260504015503 17 0 0.0 0.0 0.00 0.00 0.00 53 1007.4
20260504015003 18 0 0.0 0.0 0.00 0.00 0.00 52 1007.4
20260504014508 18 0 0.0 0.0 0.00 0.00 0.00 51 1007.4
20260504013503 19 0 0.0 0.0 0.00 0.00 0.00 49 1007.4
20260504013008 20 0 0.0 0.0 0.00 0.00 0.00 47 1007.4
20260504012504 20 0 0.0 0.0 0.00 0.00 0.00 47 1007.4
20260504012003 20 0 0.0 0.0 0.00 0.00 0.00 46 1007.3
20260504011508 21 0 0.0 0.0 0.00 0.00 0.00 44 1007.3
20260504011003 21 0 0.0 0.0 0.00 0.00 0.00 44 1007.4
20260504010503 21 184 0.0 1.6 0.00 0.00 0.00 42 1007.4
20260504010008 21 185 0.0 3.2 0.00 0.00 0.00 41 1007.5
20260504005505 22 182 0.0 3.2 0.00 0.00 0.00 41 1007.5
20260504005004 22 170 0.0 3.2 0.00 0.00 0.00 40 1007.6
20260504004508 22 171 0.0 3.2 0.00 0.00 0.00 39 1007.6
20260504004003 22 171 1.6 3.2 0.00 0.00 0.00 38 1007.7
20260504003503 23 215 1.6 3.2 0.00 0.00 0.00 37 1007.7
20260504003008 23 266 1.6 3.2 0.00 0.00 0.00 37 1007.7
20260504002503 23 271 1.6 3.2 0.00 0.00 0.00 36 1007.7
20260504002004 23 272 0.0 3.2 0.00 0.00 0.00 35 1007.7
20260504001507 23 273 0.0 1.6 0.00 0.00 0.00 35 1007.8
20260504000504 24 284 1.6 4.8 0.00 0.00 0.00 34 1007.9
20260504000008 24 289 0.0 4.8 0.00 0.00 0.00 34 1007.9
20260503235503 24 337 0.0 3.2 0.00 0.00 0.00 36 1007.9
20260503235003 24 339 0.0 3.2 0.00 0.00 0.00 36 1007.9
20260503234508 24 335 0.0 3.2 0.00 0.00 0.00 35 1007.9
20260503234003 24 344 1.6 3.2 0.00 0.00 0.00 36 1008.0
20260503233503 23 339 1.6 4.8 0.00 0.00 0.00 35 1008.0
20260503233008 23 307 1.6 4.8 0.00 0.00 0.00 36 1008.0
20260503232503 23 238 1.6 4.8 0.00 0.00 0.00 38 1008.0
20260503232004 23 216 1.6 4.8 0.00 0.00 0.00 36 1008.1
20260503231507 23 221 1.6 4.8 0.00 0.00 0.00 37 1008.1
20260503231004 23 217 0.0 3.2 0.00 0.00 0.00 37 1008.2
20260503230504 23 193 0.0 3.2 0.00 0.00 0.00 39 1008.2
20260503230009 23 339 1.6 4.8 0.00 0.00 0.00 36 1008.2
20260503225003 23 323 3.2 8.0 0.00 0.00 0.00 35 1008.3
20260503223503 23 307 1.6 8.0 0.00 0.00 0.00 36 1008.2
20260503222504 23 248 1.6 6.4 0.00 0.00 0.00 36 1008.4
20260503221507 23 261 1.6 6.4 0.00 0.00 0.00 35 1008.4
20260503220504 23 243 1.6 4.8 0.00 0.00 0.00 39 1008.5
20260503215503 23 239 3.2 8.0 0.00 0.00 0.00 35 1008.4
20260503215004 23 231 3.2 8.0 0.00 0.00 0.00 38 1008.4
20260503214507 23 231 3.2 8.0 0.00 0.00 0.00 38 1008.5
20260503214005 23 226 1.6 8.0 0.00 0.00 0.00 36 1008.7
20260503213503 24 224 1.6 4.8 0.00 0.00 0.00 36 1008.8
20260503213008 23 267 1.6 6.4 0.00 0.00 0.00 38 1008.9
20260503212504 23 314 3.2 6.4 0.00 0.00 0.00 37 1008.9
20260503212004 23 311 4.8 9.7 0.00 0.00 0.00 34 1009.0
20260503211507 23 324 3.2 9.7 0.00 0.00 0.00 34 1009.0
20260503211003 23 345 3.2 9.7 0.00 0.00 0.00 34 1009.1
20260503210504 24 309 1.6 9.7 0.00 0.00 0.00 35 1009.2
20260503210007 23 347 1.6 8.0 0.00 0.00 0.00 38 1009.4
20260503205503 23 20 3.2 11.3 0.00 0.00 0.00 34 1009.4
20260503204508 24 279 1.6 6.4 0.00 0.00 0.00 35 1009.5
20260503204003 23 287 1.6 6.4 0.00 0.00 0.00 34 1009.6
20260503203503 24 18 3.2 9.7 0.00 0.00 0.00 35 1009.7
20260503203007 24 22 1.6 9.7 0.00 0.00 0.00 34 1009.7
20260503202504 23 25 1.6 8.0 0.00 0.00 0.00 35 1009.7
20260503202004 23 352 3.2 14.5 0.00 0.00 0.00 37 1009.8
20260503201507 23 335 4.8 14.5 0.00 0.00 0.00 34 1010.0
20260503201003 23 345 6.4 14.5 0.00 0.00 0.00 35 1010.0
20260503200504 23 354 6.4 16.1 0.00 0.00 0.00 35 1010.1
20260503200007 23 343 6.4 16.1 0.00 0.00 0.00 35 1010.1
20260503195504 23 323 3.2 14.5 0.00 0.00 0.00 35 1010.2
20260503194507 23 15 3.2 8.0 0.00 0.00 0.00 38 1010.2
20260503194003 23 6 1.6 8.0 0.00 0.00 0.00 36 1010.2
20260503193504 23 312 1.6 9.7 0.00 0.00 0.00 36 1010.3
20260503192504 22 346 4.8 14.5 0.00 0.00 0.00 35 1010.4
20260503192003 22 345 4.8 14.5 0.00 0.00 0.00 35 1010.4
20260503191508 23 336 4.8 16.1 0.00 0.00 0.00 36 1010.5
20260503191003 22 331 6.4 17.7 0.00 0.00 0.00 36 1010.5
20260503190503 23 349 6.4 20.9 0.00 0.00 0.00 36 1010.6
20260503190008 23 7 6.4 20.9 0.00 0.00 0.00 35 1010.6
20260503185503 23 13 4.8 12.9 0.00 0.00 0.00 35 1010.6
20260503185004 22 19 6.4 22.5 0.00 0.00 0.00 36 1010.5
20260503184507 22 12 6.4 22.5 0.00 0.00 0.00 36 1010.7
20260503184004 23 15 4.8 16.1 0.00 0.00 0.00 37 1010.6
20260503183008 22 22 3.2 14.5 0.00 0.00 0.00 37 1010.7
20260503182503 22 24 3.2 12.9 0.00 0.00 0.00 37 1010.7
20260503182003 22 1 3.2 11.3 0.00 0.00 0.00 38 1010.9
20260503180503 22 12 3.2 20.9 0.00 0.00 0.00 38 1011.2
20260503180007 22 10 3.2 11.3 0.00 0.00 0.00 40 1011.2
20260503175503 22 346 3.2 12.9 0.00 0.00 0.00 39 1011.3
20260503175003 22 347 3.2 14.5 0.00 0.00 0.00 38 1011.3
20260503174507 22 11 3.2 14.5 0.00 0.00 0.00 39 1011.4
20260503174004 21 15 4.8 12.9 0.00 0.00 0.00 38 1011.3
20260503173503 21 22 4.8 12.9 0.00 0.00 0.00 38 1011.4
20260503173007 21 25 4.8 12.9 0.00 0.00 0.00 36 1011.4
20260503172504 21 18 4.8 17.7 0.00 0.00 0.00 38 1011.4
20260503172003 21 10 6.4 17.7 0.00 0.00 0.00 39 1011.5
20260503171003 21 352 6.4 19.3 0.00 0.00 0.00 37 1011.5
20260503170504 21 356 6.4 19.3 0.00 0.00 0.00 38 1011.5
20260503151003 16 332 3.2 9.7 0.00 0.00 0.00 54 1011.5
20260503150503 16 338 4.8 9.7 0.00 0.00 0.00 54 1011.5
20260503131004 13 240 1.6 4.8 0.00 0.00 0.00 58 1010.6
20260503130503 13 239 1.6 4.8 0.00 0.00 0.00 57 1010.5
20260503110504 11 217 0.0 1.6 0.00 0.00 0.00 58 1010.5
20260503090503 13 233 3.2 9.7 0.00 0.00 0.00 49 1009.9
20260503081507 13 198 1.6 9.7 0.00 0.00 0.00 49 1010.3
20260503080503 13 203 1.6 8.0 0.00 0.00 0.00 49 1010.5
20260503072503 13 196 3.2 8.0 0.00 0.00 0.00 48 1010.7
20260503072003 13 192 1.6 6.4 0.00 0.00 0.00 48 1010.7
20260503071508 13 190 1.6 6.4 0.00 0.00 0.00 48 1010.8
20260503070504 13 197 3.2 6.4 0.00 0.00 0.00 47 1010.8
20260503055003 14 199 4.8 12.9 0.00 0.00 0.00 45 1011.8
20260503054508 14 195 4.8 12.9 0.00 0.00 0.00 44 1011.7
20260503054003 14 198 3.2 16.1 0.00 0.00 0.00 44 1011.7
20260503053504 14 202 4.8 16.1 0.00 0.00 0.00 45 1011.8
20260503053008 14 201 3.2 8.0 0.00 0.00 0.00 45 1011.9
20260503052504 14 200 4.8 9.7 0.00 0.00 0.00 45 1011.8